Vorticity
6 9 11 10 8 6 4 4 6 8 10 11 12 10 8 6 6 6 7 9 10 9 8 8 9 11 13 14 13 12 10 11 13 14 14 13 13 12 12 12 11 11 9 8 8 8 9 9 9 9 8 8 8 8 8 9 10 10 10 11 12 12 13 13 13 12 11 12 14 14 14 14 13 12 12 12 11 11 11 10 10 9 8 8 7
4 6 8 8 7 6 4 4 5 7 9 12 12 10 8 6 6 7 8 10 10 8 8 9 11 13 14 14 13 12 13 15 16 15 14 13 12 11 11 10 10 9 9 9 9 8 8 8 8 7 7 8 8 9 10 10 10 11 12 12 13 13 13 13 13 13 14 14 13 13 12 12 11 9 7 7 6 6 6 6 6 6 6 5 5
5 6 7 7 7 6 6 6 6 8 11 12 12 9 8 7 7 8 10 10 9 9 9 12 14 16 15 15 14 15 16 17 16 14 13 12 11 10 10 10 10 10 9 8 8 8 7 7 8 8 8 9 10 11 11 12 13 13 13 14 13 13 12 11 12 13 13 11 10 9 8 6 5 4 3 4 4 5 5 6 6 6 6 6 6
6 7 7 8 8 7 7 8 8 10 12 12 10 8 8 8 9 10 11 10 9 10 13 15 16 17 16 16 17 17 17 15 14 13 13 11 11 11 11 11 10 9 8 7 7 8 8 8 9 10 10 12 13 13 14 14 14 14 13 13 12 10 10 10 10 10 9 8 7 5 4 3 4 4 5 5 5 6 7 8 9 10 11 11 12
9 9 8 8 9 9 9 9 10 11 12 11 10 9 9 11 12 12 11 9 10 13 16 17 16 16 16 17 16 16 15 14 13 13 12 11 11 11 10 9 8 8 7 8 9 9 9 10 12 12 13 14 14 15 15 14 13 12 11 9 8 8 9 9 9 8 7 5 4 4 4 5 6 6 6 8 11 13 14 16 18 19 19 19 19
9 8 8 9 10 10 9 10 10 10 11 11 12 12 13 13 13 12 10 10 13 16 17 16 16 16 17 17 16 15 14 13 12 11 10 10 10 9 9 8 8 9 9 10 11 11 12 13 14 14 14 14 14 14 12 11 9 8 8 8 8 9 9 8 7 5 4 4 5 6 7 7 8 11 14 16 18 20 21 23 24 25 25 26 26
7 7 8 10 10 10 10 9 9 10 12 14 14 13 14 13 11 9 11 14 16 17 17 17 18 18 17 16 14 13 12 11 10 9 9 9 9 9 9 10 10 10 11 12 12 13 13 14 14 14 13 13 12 10 9 8 7 8 9 9 9 9 8 7 5 4 5 7 8 8 9 12 16 19 21 23 25 28 30 30 30 31 33 33 33
6 8 9 10 10 9 9 10 11 15 16 15 14 14 13 10 9 11 14 17 18 18 19 19 18 16 14 12 11 10 9 9 9 9 9 9 10 10 10 11 11 12 12 13 13 13 13 13 13 12 11 10 8 7 8 8 9 10 10 9 9 8 7 5 6 6 7 8 9 12 17 21 23 25 27 29 30 31 30 28 28 30 29 29 29
7 9 9 10 10 11 12 15 18 18 17 15 14 12 10 9 12 16 18 19 20 20 19 17 14 12 10 9 9 8 8 8 9 9 10 10 10 10 11 11 12 12 12 12 12 12 12 12 11 9 8 8 8 9 9 9 10 10 9 8 8 6 6 7 7 8 8 11 16 21 24 25 26 28 29 27 25 23 22 22 24 24 23 23 26
9 10 11 13 14 16 18 19 18 16 14 14 11 9 10 13 17 20 21 21 20 18 15 13 11 10 9 8 7 8 9 10 11 11 11 10 10 11 11 11 11 11 11 12 11 11 10 9 8 8 8 9 10 9 10 10 9 9 8 8 7 6 8 8 7 10 14 20 24 25 25 26 27 25 22 21 20 20 20 21 23 24 24 25 26
12 13 15 16 17 19 18 16 14 14 13 11 9 10 14 18 21 21 21 20 17 14 13 12 10 9 8 8 9 10 11 11 12 11 10 10 11 10 11 11 11 11 11 11 10 9 8 8 8 9 9 9 9 10 10 9 9 9 8 7 7 8 7 8 12 18 22 24 26 25 25 24 22 19 19 20 19 18 19 21 24 27 27 25 26
15 16 17 18 18 17 15 13 13 12 10 9 11 16 19 21 22 21 18 15 13 12 11 9 9 9 10 11 11 11 11 11 10 10 10 10 10 10 10 10 10 10 10 9 8 8 8 9 10 10 10 10 10 10 9 9 8 7 6 7 8 7 9 15 21 23 23 25 25 23 21 20 18 18 19 18 17 18 21 23 26 26 25 26 31
17 17 18 18 16 14 13 13 11 9 9 12 16 19 21 22 20 16 13 11 11 10 10 9 10 11 11 11 10 10 10 10 9 9 10 10 10 9 10 10 10 9 8 8 8 9 9 10 11 11 11 10 9 9 8 7 7 7 8 9 10 12 19 24 23 22 24 25 22 19 18 17 17 17 17 17 19 21 22 25 27 27 27 31 33
18 18 18 16 14 13 11 10 9 11 14 16 19 22 22 19 14 10 10 11 10 10 10 11 11 11 10 10 9 9 10 10 10 10 10 10 10 9 9 9 9 8 8 9 9 10 11 11 11 11 10 9 8 8 8 9 10 11 13 14 17 23 26 23 20 23 25 21 16 16 18 16 16 17 16 18 20 21 23 27 28 27 28 28 24
18 17 15 13 11 10 9 10 12 15 17 19 22 23 18 12 9 10 11 11 11 11 11 11 11 10 10 9 9 10 10 10 11 10 10 10 10 9 9 9 9 8 9 9 10 11 11 11 10 9 7 7 7 8 10 13 14 16 18 22 27 28 22 18 21 24 21 15 13 14 13 13 15 16 16 18 19 18 20 25 25 23 20 18 14
16 14 12 10 9 10 12 14 16 17 21 24 23 17 11 8 10 12 13 12 12 12 11 11 10 9 9 9 10 10 10 10 10 9 9 9 9 8 8 8 9 9 10 10 11 12 11 10 8 6 4 5 7 11 14 15 17 20 25 29 27 20 16 20 25 22 16 13 14 13 12 13 14 14 14 16 18 16 15 17 19 17 14 12 11
12 11 10 10 11 13 15 16 19 23 25 22 16 10 9 11 13 13 13 12 11 11 10 9 9 9 9 10 10 10 10 10 9 9 9 8 8 8 8 9 10 10 11 11 11 11 11 8 6 4 4 6 10 14 17 17 21 26 28 24 17 13 18 25 23 17 14 12 12 12 14 14 13 13 13 13 16 17 14 13 13 12 13 13 12
10 10 11 12 15 17 19 22 24 24 19 13 10 11 12 13 13 13 13 12 11 10 9 8 8 9 9 9 9 10 10 10 9 9 8 8 9 9 9 10 10 10 11 11 11 11 10 9 7 6 7 9 13 17 21 24 27 26 20 14 12 16 24 24 18 13 13 12 11 12 12 12 12 12 12 12 13 14 15 15 13 10 10 11 10
12 14 15 17 19 21 24 24 21 15 11 10 12 13 13 13 12 12 12 11 10 9 8 8 9 9 9 9 10 10 10 9 9 8 9 9 10 10 10 10 10 11 12 11 12 12 11 10 10 10 11 13 15 21 29 30 24 17 12 11 15 20 22 19 14 11 11 11 12 13 12 11 11 10 11 11 11 11 13 15 14 11 10 9 8
17 18 19 20 23 24 22 17 13 11 11 12 13 13 13 12 11 11 11 10 9 9 9 9 9 9 10 10 10 10 9 9 9 9 10 10 10 10 10 11 11 12 12 12 12 11 11 12 11 12 14 14 18 28 34 26 14 9 11 14 17 20 19 14 11 10 10 10 11 12 12 10 9 9 9 10 10 11 12 12 13 13 13 12 10
16 18 21 23 22 19 15 12 11 12 12 12 12 12 12 11 10 10 9 9 9 9 9 9 9 9 10 10 9 9 9 9 9 10 10 10 10 10 11 12 13 13 12 13 13 13 13 12 11 13 14 15 25 35 30 16 8 10 13 15 17 18 17 13 11 9 10 10 10 10 9 9 8 9 9 10 10 11 11 11 12 12 12 12 12
20 23 23 21 16 13 12 13 13 12 11 11 12 11 10 10 10 9 8 9 10 10 9 9 9 9 10 10 9 9 9 9 9 10 10 10 11 11 12 13 13 13 13 14 14 13 12 11 12 15 16 21 33 35 20 8 9 12 14 16 16 15 14 13 12 10 9 9 9 8 9 10 10 10 10 10 10 10 10 11 11 11 11 11 11
23 22 17 14 13 13 13 12 11 11 12 11 11 10 9 9 9 9 9 9 9 9 9 9 9 10 10 9 9 9 9 9 9 10 10 11 12 12 13 13 13 14 14 13 11 10 10 13 17 19 21 30 37 26 10 7 11 13 15 16 15 14 13 12 12 11 8 7 8 10 11 10 10 10 10 10 10 9 9 9 9 11 12 11 11
17 15 13 12 13 12 10 10 10 11 10 9 9 9 9 9 9 9 9 9 9 9 9 9 10 9 9 8 9 9 9 9 10 11 11 12 12 13 13 13 13 13 12 9 9 11 15 20 22 22 28 36 31 15 7 10 13 14 15 15 14 14 13 13 13 12 10 8 8 8 9 9 9 9 9 8 8 7 7 7 8 8 9 9 10
16 14 14 12 11 9 9 10 10 9 8 9 9 9 9 10 10 9 9 9 10 10 10 9 9 8 8 9 8 9 9 10 12 12 12 13 13 14 14 14 13 11 9 9 11 15 20 23 22 26 35 35 21 10 9 13 14 14 14 13 12 12 13 13 13 12 10 10 9 7 7 6 7 7 7 6 6 7 7 7 7 7 7 7 8
15 14 12 10 9 9 9 9 8 8 9 9 9 9 9 10 9 9 9 9 10 9 9 8 8 9 9 9 8 9 10 12 12 12 13 14 15 14 14 13 12 9 8 11 15 19 22 23 23 31 38 29 13 8 11 12 12 13 12 12 12 13 12 12 11 10 10 9 9 8 7 5 5 5 6 6 7 7 7 7 6 7 7 7 7
12 11 10 9 9 9 9 9 9 9 9 9 10 10 10 10 9 9 9 10 9 9 8 8 8 9 8 9 9 10 11 12 12 12 13 15 15 14 14 12 10 9 11 14 19 22 23 25 28 35 34 22 10 8 9 9 10 12 12 12 13 13 13 12 10 10 9 8 8 7 7 6 6 5 5 6 7 7 8 8 7 7 7 7 6
9 9 8 9 9 9 9 10 10 10 10 10 10 10 10 10 9 9 9 9 8 8 8 8 8 9 9 9 9 10 11 12 12 13 14 15 15 14 13 11 9 10 14 18 22 25 27 28 31 32 26 15 10 10 10 10 12 12 11 11 11 10 11 10 10 10 9 8 7 7 6 7 7 6 6 6 6 7 8 8 9 9 8 7 6
8 8 9 10 10 10 10 10 10 10 10 10 10 10 9 9 9 9 9 9 8 8 8 8 8 9 9 10 10 10 11 11 12 13 14 15 15 14 12 11 11 14 19 21 23 27 29 30 30 27 19 13 11 12 12 13 13 12 11 11 9 9 9 9 9 10 9 9 8 7 7 7 7 7 8 8 7 7 8 8 8 9 8 7 7
10 10 11 11 11 10 11 11 11 11 10 10 10 9 9 9 8 8 8 8 8 8 7 7 8 9 9 9 10 10 11 12 13 15 15 15 15 14 11 11 13 18 23 25 27 31 32 29 26 24 19 15 13 11 11 11 10 10 10 10 10 10 9 9 10 10 9 10 10 9 9 9 8 8 9 9 9 8 8 8 8 8 8 8 8
11 12 11 11 11 11 11 11 11 11 10 9 9 8 8 8 8 9 8 7 7 7 8 8 9 9 10 10 10 10 10 11 12 14 15 15 15 15 13 13 16 21 24 24 26 28 28 24 21 20 17 15 14 13 13 13 12 12 11 10 11 11 10 10 10 10 10 10 10 10 10 10 9 9 9 8 8 8 7 8 8 8 8 8 8
12 12 12 11 11 11 12 11 10 10 9 9 8 8 7 7 8 9 9 9 8 8 9 9 9 10 10 11 11 11 11 11 12 12 13 13 13 13 15 18 22 24 24 22 22 21 16 13 12 11 11 12 12 13 13 14 14 13 13 12 12 12 12 12 12 11 11 11 10 10 10 9 9 8 8 8 8 8 8 8 8 8 8 8 7
12 12 12 11 11 11 11 10 10 10 9 8 7 7 7 7 6 7 8 9 10 9 8 8 9 10 10 10 10 11 11 12 13 14 14 13 12 12 16 21 24 23 21 21 21 18 14 12 13 12 13 13 13 14 14 15 16 16 15 15 14 13 12 12 11 10 10 10 9 9 8 8 8 8 8 8 8 7 8 7 7 7 7 6 6
13 11 10 11 11 11 11 11 10 8 8 7 7 7 7 6 6 6 7 8 8 8 9 10 10 10 10 10 10 11 12 13 14 15 16 15 13 13 17 21 22 21 19 18 18 16 15 15 15 15 15 15 16 16 16 16 15 14 13 12 11 10 9 8 7 7 8 8 8 9 9 9 9 9 8 8 8 7 7 6 6 6 6 6 7
10 10 10 11 12 12 11 10 8 7 7 7 7 7 6 7 7 8 8 8 7 7 8 9 9 10 10 9 10 11 12 13 14 16 17 15 14 16 19 21 22 21 18 16 16 15 15 16 15 16 16 15 15 14 13 11 11 9 9 8 8 7 7 7 6 6 6 5 6 7 8 8 9 8 8 7 7 7 7 8 8 9 9 10 11
10 11 13 13 12 11 8 7 6 6 7 7 7 8 8 8 8 8 8 8 8 8 8 8 9 10 10 10 11 12 12 12 15 17 16 14 15 18 21 22 22 19 15 13 13 13 13 13 13 12 12 10 10 9 8 8 8 8 8 8 8 7 7 7 7 7 7 6 6 5 5 6 6 7 8 9 10 11 12 13 15 16 16 17 18
13 13 13 11 9 7 6 5 6 6 6 7 8 8 9 8 8 8 8 8 8 9 10 10 10 11 11 12 13 13 13 15 17 17 14 13 15 20 22 21 19 15 12 11 11 11 10 10 9 8 8 7 7 8 8 8 8 8 8 8 8 7 7 7 7 7 7 8 8 7 7 7 7 8 10 12 13 15 16 17 18 19 19 20 20
12 10 9 7 5 5 5 6 7 7 8 8 8 8 8 8 8 8 8 9 9 9 10 11 12 12 12 12 12 13 14 16 17 15 13 14 18 22 22 18 15 12 11 10 10 9 8 7 6 6 7 7 7 8 9 9 9 8 8 8 7 7 7 7 7 8 8 9 10 11 12 12 13 13 14 14 15 16 17 18 17 17 18 17 16
8 6 5 4 5 6 7 7 8 8 8 8 8 8 8 8 9 9 9 9 10 11 12 13 14 13 12 13 13 13 15 16 16 13 12 15 21 24 19 14 11 11 10 10 9 8 7 6 6 7 8 9 9 10 10 9 9 8 8 8 8 8 9 9 10 11 12 14 15 16 18 19 19 20 19 18 18 17 16 16 16 15 16 15 15
5 5 6 6 7 7 7 8 8 8 8 9 9 9 9 9 9 10 10 11 12 13 13 13 13 13 14 15 14 15 15 15 14 12 13 19 25 24 16 11 11 11 10 9 8 7 6 6 7 8 9 10 10 9 9 8 8 8 9 9 10 11 13 15 16 18 19 19 19 19 19 18 17 18 17 17 17 16 15 16 17 17 18 19 19
6 7 7 7 7 8 8 9 9 9 9 9 9 9 10 10 11 11 12 13 13 13 13 14 14 14 15 15 15 15 15 14 14 14 17 24 28 22 14 11 11 10 9 8 7 6 6 8 9 10 10 10 9 8 8 8 8 10 12 14 16 18 20 21 22 21 20 19 18 17 16 15 15 16 16 17 18 19 19 20 21 22 23 24 25
7 7 8 8 9 9 9 9 9 9 9 10 10 11 11 11 12 12 13 13 13 14 15 15 14 15 15 15 15 14 14 16 19 21 25 29 28 19 13 12 11 9 8 7 6 7 8 9 10 10 10 9 8 8 8 10 13 16 20 22 24 24 23 21 19 17 16 16 16 16 18 19 20 21 22 23 23 25 26 26 27 27 28 28 28
8 9 9 9 9 9 9 9 9 9 9 10 10 11 12 13 14 16 17 17 18 18 18 18 18 18 18 17 17 19 21 24 25 27 29 28 22 14 11 10 9 8 7 7 7 9 10 11 10 10 9 8 9 11 14 18 22 24 25 24 22 20 18 16 16 16 17 19 21 23 24 26 27 27 28 29 29 29 29 28 28 28 28 28 28
9 9 9 8 8 9 9 9 9 9 10 12 14 16 18 20 21 22 23 24 24 25 25 25 25 24 24 25 26 28 28 28 27 28 26 21 13 9 8 8 7 6 7 9 10 11 11 10 9 9 9 11 15 19 23 26 26 24 21 18 16 16 17 18 19 22 24 26 28 30 30 30 30 29 29 29 28 28 28 27 27 27 27 26 26
9 8 8 9 9 9 9 10 12 15 17 20 22 22 23 24 26 27 29 30 31 32 31 30 30 30 31 32 31 30 28 27 26 24 18 11 7 7 8 8 8 9 10 12 11 10 9 9 9 11 15 20 24 26 26 24 21 18 16 16 17 19 22 24 27 29 31 31 31 30 29 28 28 27 27 28 28 28 28 28 27 27 27 27 26
9 9 10 9 9 11 13 16 20 22 23 24 24 25 28 30 33 35 36 37 36 35 33 33 33 33 32 31 29 28 26 24 19 14 9 7 8 9 8 9 11 12 12 11 10 8 9 11 14 19 24 26 26 24 21 18 17 16 17 20 23 25 28 31 32 31 30 29 28 28 28 28 28 29 29 30 31 31 31 30 29 28 28 27 26
10 10 10 11 13 16 20 23 24 24 24 26 29 33 36 39 40 41 40 38 36 34 33 32 31 30 29 28 26 23 19 14 9 7 7 8 9 9 10 11 12 11 10 9 8 9 12 17 22 26 27 25 22 19 17 16 17 19 22 25 29 31 32 32 30 28 28 28 28 28 29 30 31 32 33 33 34 33 32 30 28 27 27 27 28
10 10 12 15 18 22 24 25 25 26 29 34 38 41 43 43 42 40 37 34 32 31 29 28 27 27 25 22 17 13 9 7 7 8 9 9 9 11 12 12 11 9 8 8 10 14 19 24 26 25 23 20 18 17 16 17 19 23 27 30 32 32 30 28 27 27 28 28 28 30 31 33 33 33 33 32 32 31 29 27 27 27 27 28 29
10 13 17 20 22 25 26 25 26 29 33 37 39 39 38 37 35 32 30 28 28 28 27 25 23 20 15 11 8 7 7 7 8 9 9 10 11 12 11 10 9 8 8 10 15 21 24 25 24 21 20 19 17 15 17 20 24 28 31 32 32 30 28 27 27 27 28 28 29 31 32 33 32 30 29 28 27 27 26 26 27 29 29 30 30
14 19 20 21 24 26 25 24 26 30 32 34 34 32 30 28 27 26 26 25 24 23 21 17 13 10 7 6 7 7 7 9 9 10 11 11 11 11 10 9 8 8 10 15 21 24 24 22 21 20 19 17 15 16 19 23 27 30 33 32 30 28 27 26 27 27 27 28 30 31 31 31 29 28 27 27 27 27 29 29 29 30 29 27 26
20 21 20 22 26 25 22 22 25 28 28 27 27 25 23 22 22 22 22 21 17 14 10 7 6 6 7 7 8 9 9 10 11 10 10 10 10 10 10 8 7 9 15 20 23 23 21 21 21 20 17 15 15 18 21 25 28 32 33 31 28 28 27 26 26 27 27 28 30 30 30 30 29 28 28 29 29 29 29 28 27 26 25 23 22
Height
5541 5539 5536 5533 5531 5528 5525 5522 5519 5516 5514 5511 5508 5506 5502 5499 5496 5493 5490 5488 5485 5482 5480 5478 5476 5474 5471 5468 5466 5463 5460 5457 5454 5451 5449 5447 5445 5443 5441 5439 5438 5437 5434 5432 5431 5430 5428 5426 5425 5423 5420 5418 5417 5415 5413 5410 5408 5406 5403 5402 5400 5398 5397 5395 5398 5403 5403 5398 5394 5394 5393 5391 5390 5387 5384 5383 5383 5382 5382 5382 5381 5381 5380 5379 5378
5532 5529 5527 5524 5521 5518 5515 5513 5510 5507 5504 5501 5498 5495 5492 5489 5485 5482 5480 5477 5474 5471 5469 5467 5464 5462 5459 5457 5454 5451 5449 5446 5444 5441 5439 5437 5435 5433 5431 5429 5428 5427 5425 5423 5422 5420 5418 5417 5415 5413 5410 5408 5406 5404 5401 5398 5396 5394 5391 5390 5389 5386 5384 5382 5383 5387 5390 5387 5381 5380 5380 5379 5377 5375 5371 5370 5368 5367 5367 5367 5365 5364 5364 5363 5363
5523 5520 5517 5514 5512 5509 5506 5503 5500 5497 5494 5491 5488 5484 5481 5478 5475 5472 5469 5466 5464 5461 5458 5455 5452 5450 5447 5445 5443 5440 5438 5436 5433 5431 5429 5427 5425 5423 5422 5420 5418 5417 5415 5413 5411 5410 5408 5407 5405 5402 5399 5397 5396 5393 5390 5387 5384 5382 5380 5378 5376 5374 5371 5369 5370 5372 5375 5375 5370 5367 5367 5366 5365 5362 5358 5356 5354 5351 5352 5351 5348 5347 5347 5346 5345
5513 5510 5508 5505 5502 5499 5496 5493 5490 5487 5484 5480 5477 5474 5471 5468 5464 5462 5459 5456 5453 5449 5446 5443 5440 5438 5436 5434 5432 5429 5427 5425 5423 5421 5420 5417 5415 5413 5412 5410 5408 5406 5404 5402 5401 5399 5398 5396 5394 5391 5388 5387 5385 5383 5379 5376 5373 5371 5369 5366 5363 5362 5359 5357 5357 5357 5359 5362 5359 5354 5352 5352 5352 5348 5343 5341 5339 5336 5335 5335 5332 5331 5330 5328 5327
5503 5500 5497 5495 5492 5489 5486 5483 5480 5477 5473 5470 5467 5463 5460 5457 5454 5451 5448 5445 5442 5438 5435 5432 5429 5427 5425 5423 5421 5419 5417 5415 5413 5411 5410 5407 5405 5403 5401 5400 5398 5396 5394 5392 5390 5389 5387 5385 5383 5380 5378 5376 5374 5371 5368 5365 5362 5360 5358 5355 5352 5349 5348 5346 5345 5344 5345 5347 5346 5342 5338 5338 5338 5335 5329 5324 5323 5320 5317 5316 5315 5314 5312 5311 5309
5491 5489 5486 5484 5481 5478 5475 5472 5469 5466 5463 5459 5456 5453 5450 5447 5443 5440 5437 5434 5431 5428 5424 5422 5419 5417 5414 5412 5410 5409 5407 5405 5403 5401 5399 5397 5395 5393 5391 5389 5387 5385 5384 5382 5380 5378 5376 5375 5372 5369 5367 5365 5362 5359 5356 5353 5351 5349 5346 5343 5340 5338 5337 5335 5333 5332 5332 5333 5332 5329 5325 5322 5322 5321 5315 5307 5305 5304 5301 5298 5298 5296 5294 5293 5292
5480 5478 5475 5472 5469 5466 5463 5460 5457 5455 5452 5449 5446 5443 5439 5436 5433 5429 5426 5423 5421 5417 5414 5411 5409 5407 5404 5402 5400 5399 5397 5395 5393 5391 5389 5387 5384 5382 5380 5378 5377 5375 5373 5372 5369 5367 5366 5364 5361 5358 5356 5353 5351 5348 5345 5342 5339 5337 5334 5331 5328 5326 5325 5323 5321 5319 5318 5318 5318 5315 5311 5307 5305 5304 5299 5290 5287 5288 5285 5282 5282 5280 5277 5276 5276
5469 5467 5464 5461 5458 5455 5452 5449 5446 5444 5441 5438 5435 5432 5428 5425 5422 5419 5415 5413 5410 5407 5404 5402 5399 5397 5395 5393 5391 5389 5387 5385 5383 5381 5378 5376 5374 5372 5370 5368 5366 5365 5363 5361 5359 5357 5355 5352 5350 5347 5344 5342 5340 5337 5334 5331 5328 5326 5323 5319 5316 5314 5313 5310 5308 5306 5305 5304 5303 5300 5296 5293 5290 5287 5282 5276 5273 5273 5269 5266 5268 5267 5263 5261 5261
5458 5455 5453 5450 5446 5443 5440 5437 5435 5432 5430 5427 5424 5421 5418 5415 5412 5408 5405 5402 5400 5397 5395 5392 5390 5388 5385 5383 5381 5379 5377 5375 5373 5370 5368 5366 5364 5362 5360 5358 5356 5354 5352 5350 5347 5345 5343 5341 5338 5336 5333 5331 5328 5325 5322 5319 5316 5314 5311 5308 5305 5303 5301 5298 5296 5294 5291 5290 5289 5285 5280 5279 5276 5271 5267 5264 5260 5259 5256 5253 5255 5254 5250 5249 5249
5448 5445 5442 5439 5436 5433 5430 5426 5424 5421 5418 5416 5413 5410 5408 5405 5402 5398 5395 5393 5390 5388 5385 5383 5381 5379 5376 5374 5372 5370 5368 5366 5363 5360 5358 5356 5354 5352 5350 5348 5345 5343 5341 5339 5337 5334 5332 5330 5327 5325 5322 5320 5317 5314 5311 5308 5305 5302 5299 5296 5294 5291 5289 5287 5284 5282 5278 5277 5276 5271 5267 5267 5263 5257 5255 5253 5248 5246 5244 5242 5242 5242 5240 5240 5241
5437 5434 5431 5428 5425 5422 5419 5415 5413 5410 5407 5405 5402 5400 5397 5394 5391 5388 5386 5383 5381 5378 5376 5374 5372 5369 5367 5365 5363 5361 5359 5356 5353 5350 5347 5345 5344 5342 5340 5337 5335 5333 5331 5329 5326 5324 5321 5319 5316 5313 5311 5308 5305 5301 5299 5296 5293 5290 5287 5285 5282 5280 5277 5274 5272 5269 5266 5264 5263 5259 5256 5255 5251 5245 5243 5241 5237 5235 5234 5232 5231 5231 5230 5230 5231
5426 5423 5420 5417 5414 5411 5408 5405 5402 5399 5397 5394 5391 5389 5386 5383 5381 5378 5376 5374 5371 5369 5367 5364 5362 5360 5358 5356 5353 5351 5349 5346 5343 5340 5337 5335 5333 5331 5329 5327 5325 5323 5321 5318 5316 5313 5310 5308 5305 5302 5299 5295 5292 5289 5286 5283 5280 5277 5275 5272 5270 5268 5265 5262 5259 5257 5254 5253 5251 5249 5246 5243 5240 5236 5232 5230 5228 5226 5224 5223 5221 5221 5220 5221 5222
5416 5413 5410 5407 5403 5400 5398 5395 5392 5389 5386 5384 5381 5378 5375 5373 5371 5368 5366 5364 5361 5359 5357 5355 5353 5351 5348 5346 5344 5342 5339 5336 5333 5330 5327 5325 5323 5321 5320 5317 5314 5313 5311 5308 5305 5303 5300 5297 5294 5291 5287 5283 5280 5276 5273 5270 5267 5264 5262 5260 5258 5256 5253 5250 5247 5245 5243 5241 5240 5239 5236 5232 5231 5228 5222 5219 5219 5218 5216 5214 5213 5212 5212 5213 5214
5406 5402 5399 5396 5393 5390 5388 5385 5383 5380 5376 5373 5370 5368 5365 5363 5361 5359 5357 5354 5352 5350 5348 5346 5344 5341 5339 5337 5335 5332 5330 5326 5323 5320 5318 5315 5312 5310 5310 5308 5305 5302 5300 5298 5295 5292 5289 5285 5282 5280 5276 5272 5268 5264 5260 5256 5253 5251 5249 5247 5246 5244 5242 5239 5236 5233 5232 5231 5230 5230 5226 5222 5221 5219 5214 5211 5211 5210 5208 5207 5205 5204 5205 5206 5208
5395 5392 5389 5385 5383 5380 5378 5375 5372 5369 5366 5364 5361 5358 5356 5354 5352 5350 5347 5345 5343 5341 5339 5336 5334 5332 5330 5327 5325 5323 5320 5316 5313 5310 5307 5305 5302 5299 5298 5297 5295 5293 5290 5288 5285 5281 5278 5274 5271 5268 5264 5260 5256 5250 5246 5243 5240 5238 5236 5234 5233 5232 5231 5229 5226 5223 5221 5220 5221 5221 5218 5214 5213 5211 5207 5204 5203 5202 5201 5200 5199 5199 5200 5201 5203
5384 5382 5379 5375 5372 5370 5367 5365 5362 5359 5357 5354 5351 5349 5347 5345 5343 5341 5338 5336 5334 5331 5329 5327 5325 5322 5320 5318 5315 5313 5310 5306 5303 5300 5297 5295 5292 5289 5287 5286 5285 5282 5279 5277 5274 5271 5268 5264 5261 5257 5253 5249 5244 5238 5233 5229 5227 5225 5224 5222 5221 5220 5220 5218 5215 5212 5211 5210 5210 5210 5209 5207 5205 5203 5201 5198 5196 5195 5194 5194 5194 5194 5194 5196 5197
5374 5371 5369 5365 5362 5360 5357 5354 5352 5349 5347 5344 5342 5340 5338 5336 5334 5332 5330 5327 5325 5323 5320 5318 5315 5313 5311 5308 5306 5303 5300 5297 5294 5291 5288 5285 5283 5280 5277 5275 5273 5271 5269 5266 5263 5260 5257 5254 5250 5247 5243 5238 5232 5226 5220 5216 5215 5214 5213 5212 5211 5210 5210 5207 5203 5201 5201 5200 5200 5199 5199 5198 5197 5196 5194 5192 5190 5188 5187 5188 5189 5188 5188 5190 5192
5363 5361 5358 5355 5352 5349 5347 5344 5342 5339 5337 5335 5334 5332 5330 5328 5325 5323 5321 5319 5316 5314 5312 5309 5306 5304 5302 5299 5297 5294 5291 5287 5284 5281 5278 5275 5273 5270 5267 5264 5262 5260 5257 5255 5252 5248 5245 5242 5239 5236 5233 5228 5222 5215 5209 5204 5203 5203 5204 5203 5202 5202 5200 5197 5193 5192 5191 5190 5190 5190 5189 5189 5188 5188 5187 5185 5184 5182 5181 5182 5182 5180 5181 5184 5185
5353 5351 5348 5345 5342 5339 5337 5335 5332 5331 5329 5327 5325 5323 5321 5319 5317 5314 5312 5310 5308 5305 5303 5300 5298 5295 5293 5290 5287 5285 5281 5278 5274 5271 5269 5265 5262 5260 5257 5254 5252 5249 5245 5242 5239 5236 5233 5230 5226 5223 5220 5216 5211 5206 5200 5194 5192 5193 5193 5193 5194 5194 5192 5187 5184 5184 5183 5181 5181 5180 5179 5179 5178 5178 5178 5178 5177 5175 5174 5175 5175 5174 5175 5176 5176
5344 5341 5338 5336 5333 5330 5328 5326 5324 5322 5320 5318 5317 5315 5313 5310 5308 5306 5304 5302 5299 5297 5294 5292 5289 5287 5284 5281 5278 5275 5272 5269 5265 5261 5258 5255 5251 5249 5246 5244 5241 5238 5235 5231 5228 5225 5221 5218 5214 5209 5205 5202 5198 5194 5190 5186 5183 5183 5182 5182 5184 5184 5181 5178 5177 5176 5175 5175 5174 5172 5171 5170 5168 5168 5169 5169 5169 5168 5167 5167 5167 5168 5168 5169 5168
5335 5332 5329 5327 5325 5322 5320 5318 5316 5314 5312 5310 5308 5307 5305 5302 5300 5298 5296 5293 5291 5288 5286 5284 5281 5278 5275 5272 5269 5266 5263 5259 5255 5251 5247 5244 5240 5237 5235 5232 5229 5226 5223 5221 5217 5214 5211 5206 5202 5197 5192 5188 5185 5182 5180 5177 5174 5173 5173 5173 5173 5172 5170 5169 5169 5168 5168 5168 5167 5165 5164 5162 5160 5159 5159 5159 5160 5161 5160 5158 5158 5159 5160 5162 5162
5326 5323 5321 5319 5317 5315 5313 5310 5309 5307 5305 5303 5301 5299 5297 5294 5292 5290 5287 5285 5283 5280 5278 5275 5273 5270 5267 5263 5260 5257 5253 5250 5246 5241 5236 5233 5229 5226 5223 5221 5218 5214 5212 5210 5206 5203 5199 5195 5191 5185 5180 5176 5174 5171 5170 5167 5165 5163 5163 5163 5163 5162 5160 5160 5160 5160 5160 5160 5159 5158 5156 5155 5153 5152 5151 5150 5150 5150 5151 5151 5150 5150 5151 5153 5154
5317 5315 5313 5311 5309 5307 5305 5303 5301 5299 5297 5295 5293 5291 5289 5286 5284 5282 5279 5277 5275 5272 5269 5267 5264 5261 5258 5254 5251 5247 5244 5241 5237 5232 5226 5222 5218 5215 5212 5209 5206 5202 5200 5198 5195 5192 5188 5184 5179 5174 5169 5166 5163 5162 5160 5158 5156 5155 5153 5152 5152 5151 5151 5151 5150 5150 5150 5151 5151 5151 5150 5148 5146 5145 5144 5143 5141 5140 5140 5141 5142 5142 5143 5143 5144
5310 5308 5306 5303 5302 5300 5298 5296 5294 5292 5290 5287 5285 5283 5281 5278 5276 5273 5271 5269 5267 5264 5261 5258 5255 5252 5249 5245 5241 5237 5234 5231 5227 5222 5217 5212 5208 5204 5200 5197 5194 5190 5188 5186 5183 5180 5177 5173 5168 5163 5158 5156 5153 5152 5151 5149 5147 5146 5144 5142 5141 5141 5141 5141 5140 5140 5140 5140 5141 5142 5142 5141 5140 5138 5137 5135 5133 5131 5130 5131 5132 5133 5134 5135 5134
5302 5300 5298 5296 5295 5292 5291 5289 5286 5284 5282 5280 5277 5275 5273 5271 5268 5265 5263 5261 5258 5255 5252 5249 5246 5243 5240 5237 5233 5228 5224 5220 5216 5211 5207 5203 5199 5194 5190 5186 5183 5179 5176 5173 5170 5167 5164 5161 5157 5153 5150 5147 5144 5143 5142 5140 5138 5137 5135 5134 5132 5132 5132 5132 5131 5130 5130 5130 5130 5130 5131 5132 5132 5131 5130 5127 5126 5125 5124 5122 5122 5122 5123 5125 5126
5295 5293 5291 5289 5287 5285 5283 5281 5279 5277 5274 5272 5270 5268 5265 5263 5260 5257 5255 5253 5250 5247 5243 5240 5237 5234 5231 5228 5224 5219 5214 5210 5206 5201 5197 5193 5189 5184 5179 5176 5172 5168 5165 5161 5157 5154 5151 5148 5145 5143 5140 5138 5136 5135 5133 5131 5130 5128 5126 5125 5124 5123 5123 5123 5122 5121 5121 5121 5120 5119 5119 5119 5120 5121 5121 5120 5120 5119 5117 5115 5114 5113 5113 5114 5115
5288 5286 5284 5283 5280 5278 5276 5274 5272 5269 5267 5264 5262 5260 5257 5255 5252 5249 5247 5244 5241 5238 5235 5231 5228 5225 5222 5218 5214 5210 5206 5201 5196 5192 5188 5183 5179 5174 5169 5165 5161 5157 5153 5149 5145 5142 5139 5137 5134 5132 5130 5129 5127 5126 5124 5123 5121 5120 5118 5117 5115 5115 5114 5113 5113 5113 5112 5112 5111 5110 5109 5108 5107 5108 5109 5110 5111 5110 5109 5107 5106 5106 5105 5103 5104
5282 5280 5277 5275 5273 5271 5269 5267 5264 5262 5259 5257 5254 5252 5249 5247 5244 5241 5238 5235 5232 5229 5226 5223 5219 5215 5213 5209 5205 5202 5197 5191 5186 5182 5178 5173 5169 5165 5160 5155 5150 5146 5141 5137 5134 5131 5128 5126 5124 5122 5120 5119 5118 5116 5115 5114 5112 5111 5110 5109 5107 5106 5105 5104 5104 5104 5103 5102 5101 5101 5100 5098 5098 5097 5096 5097 5098 5099 5099 5098 5098 5097 5096 5093 5093
5275 5273 5271 5268 5266 5264 5262 5260 5257 5255 5252 5250 5247 5244 5241 5239 5236 5233 5229 5226 5224 5220 5217 5214 5210 5206 5203 5199 5195 5192 5188 5183 5177 5172 5168 5164 5159 5155 5151 5145 5140 5135 5130 5126 5123 5121 5118 5116 5114 5113 5111 5110 5109 5107 5106 5105 5103 5102 5101 5099 5098 5097 5096 5095 5095 5094 5093 5092 5091 5091 5090 5089 5088 5087 5086 5086 5086 5086 5085 5086 5086 5087 5085 5083 5084
5268 5266 5264 5262 5259 5257 5255 5252 5250 5248 5245 5243 5240 5236 5233 5230 5228 5225 5222 5218 5214 5211 5208 5204 5201 5197 5194 5190 5186 5182 5179 5174 5168 5163 5158 5153 5149 5146 5142 5136 5131 5126 5120 5116 5113 5111 5109 5107 5105 5103 5102 5101 5100 5099 5097 5096 5094 5093 5092 5090 5089 5088 5087 5086 5085 5084 5082 5081 5081 5081 5080 5079 5078 5077 5076 5075 5075 5074 5073 5073 5073 5073 5073 5073 5074
5261 5259 5257 5255 5252 5250 5248 5245 5243 5240 5238 5235 5233 5229 5226 5222 5218 5216 5214 5210 5206 5201 5198 5194 5191 5187 5183 5180 5176 5173 5169 5165 5160 5155 5148 5143 5139 5135 5132 5127 5122 5117 5112 5108 5105 5103 5101 5099 5097 5095 5093 5092 5091 5090 5088 5086 5085 5084 5082 5081 5079 5078 5077 5076 5075 5073 5072 5071 5071 5070 5069 5068 5067 5066 5064 5064 5063 5062 5061 5060 5060 5060 5060 5061 5062
5255 5253 5250 5248 5245 5243 5241 5238 5236 5233 5230 5227 5225 5222 5219 5215 5210 5206 5203 5200 5197 5193 5189 5184 5180 5176 5172 5168 5165 5161 5158 5155 5151 5147 5141 5135 5130 5126 5122 5116 5111 5107 5103 5100 5098 5096 5094 5092 5090 5089 5087 5085 5084 5082 5080 5078 5077 5075 5073 5072 5070 5068 5067 5065 5064 5062 5061 5060 5059 5058 5057 5056 5055 5054 5053 5052 5051 5050 5050 5049 5048 5047 5047 5047 5048
5248 5246 5243 5241 5238 5236 5234 5231 5228 5226 5223 5220 5217 5214 5211 5208 5204 5199 5194 5190 5186 5182 5179 5175 5171 5167 5162 5158 5154 5150 5147 5143 5139 5136 5132 5127 5123 5118 5114 5109 5103 5098 5095 5092 5090 5088 5086 5084 5083 5081 5079 5077 5076 5074 5073 5071 5069 5067 5066 5065 5063 5061 5059 5057 5055 5053 5051 5049 5048 5047 5045 5044 5042 5041 5040 5038 5037 5036 5036 5036 5035 5034 5033 5033 5034
5241 5239 5237 5234 5231 5229 5226 5224 5221 5218 5215 5212 5209 5206 5202 5199 5196 5192 5188 5183 5177 5172 5167 5163 5160 5157 5152 5148 5144 5140 5136 5132 5127 5124 5120 5117 5114 5110 5106 5101 5097 5092 5088 5085 5083 5081 5078 5076 5074 5072 5070 5069 5067 5065 5064 5062 5060 5058 5057 5055 5054 5052 5050 5048 5047 5045 5043 5040 5039 5037 5035 5032 5030 5028 5027 5025 5023 5022 5021 5021 5021 5019 5019 5019 5019
5235 5232 5230 5227 5225 5222 5219 5217 5214 5211 5207 5204 5201 5197 5193 5190 5186 5182 5179 5175 5171 5166 5159 5153 5149 5145 5142 5138 5134 5131 5126 5121 5117 5113 5109 5106 5103 5100 5097 5093 5089 5085 5082 5079 5076 5074 5072 5069 5067 5065 5063 5061 5059 5057 5055 5053 5051 5049 5047 5045 5043 5041 5039 5037 5035 5033 5031 5029 5028 5026 5024 5021 5019 5016 5014 5013 5011 5009 5007 5006 5005 5004 5003 5003 5002
5228 5226 5223 5221 5218 5215 5212 5209 5206 5203 5199 5195 5192 5188 5184 5180 5176 5173 5169 5165 5161 5157 5152 5146 5141 5135 5131 5128 5125 5122 5117 5112 5108 5103 5099 5095 5093 5090 5087 5084 5081 5078 5074 5071 5068 5066 5064 5062 5060 5057 5055 5053 5051 5049 5046 5044 5042 5039 5037 5035 5032 5030 5027 5025 5022 5019 5017 5015 5013 5012 5010 5008 5006 5003 5001 4999 4997 4995 4993 4991 4990 4989 4988 4987 4986
5222 5219 5216 5214 5211 5208 5205 5201 5198 5195 5191 5187 5183 5179 5175 5171 5166 5162 5158 5154 5150 5146 5142 5137 5132 5127 5121 5117 5114 5112 5108 5104 5099 5094 5090 5087 5084 5081 5078 5076 5073 5071 5067 5064 5061 5058 5056 5054 5051 5049 5047 5045 5042 5040 5037 5034 5032 5029 5026 5023 5021 5018 5015 5012 5009 5006 5003 5000 4997 4995 4993 4991 4990 4988 4986 4984 4982 4980 4977 4976 4974 4974 4973 4972 4971
5215 5212 5210 5207 5204 5201 5197 5193 5190 5186 5182 5178 5174 5170 5166 5161 5156 5152 5148 5144 5139 5135 5131 5127 5122 5118 5113 5109 5105 5102 5099 5095 5090 5086 5082 5078 5075 5072 5070 5067 5065 5063 5060 5057 5054 5052 5049 5046 5043 5041 5038 5035 5033 5030 5027 5024 5021 5018 5015 5012 5008 5005 5002 4999 4995 4992 4988 4985 4982 4979 4976 4974 4972 4970 4968 4967 4966 4964 4962 4960 4959 4958 4958 4958 4956
5208 5206 5203 5200 5196 5193 5189 5185 5181 5177 5173 5168 5164 5160 5155 5151 5146 5142 5137 5133 5129 5124 5120 5116 5111 5107 5104 5101 5097 5093 5090 5087 5082 5078 5074 5070 5067 5064 5062 5060 5057 5055 5052 5050 5047 5044 5042 5039 5035 5032 5028 5025 5022 5019 5016 5013 5010 5006 5003 4999 4995 4992 4988 4984 4981 4977 4973 4970 4967 4964 4961 4958 4955 4953 4951 4950 4949 4948 4947 4945 4944 4943 4943 4943 4942
5202 5199 5196 5192 5189 5185 5181 5177 5173 5168 5164 5159 5154 5149 5145 5140 5136 5131 5127 5122 5118 5114 5110 5106 5101 5097 5094 5091 5087 5084 5082 5078 5074 5070 5067 5063 5059 5057 5054 5052 5050 5048 5045 5043 5040 5037 5034 5031 5027 5024 5020 5016 5012 5008 5005 5001 4998 4994 4990 4986 4982 4978 4974 4969 4965 4961 4958 4954 4951 4948 4945 4943 4940 4937 4935 4933 4931 4930 4930 4929 4929 4928 4927 4927 4927
5196 5192 5188 5184 5181 5177 5172 5168 5163 5159 5154 5149 5144 5139 5134 5129 5124 5120 5115 5111 5107 5103 5099 5095 5091 5087 5084 5080 5077 5075 5072 5069 5066 5063 5059 5056 5053 5050 5048 5045 5043 5041 5038 5036 5033 5030 5027 5023 5019 5016 5012 5008 5003 4999 4995 4990 4986 4982 4978 4973 4969 4964 4960 4955 4951 4946 4943 4939 4936 4934 4930 4928 4925 4922 4920 4917 4915 4914 4913 4912 4913 4912 4912 4912 4913
5189 5185 5181 5176 5172 5168 5163 5159 5154 5149 5143 5138 5133 5128 5123 5118 5113 5108 5104 5100 5096 5092 5089 5085 5081 5077 5074 5071 5068 5065 5063 5060 5057 5055 5052 5049 5046 5044 5042 5039 5037 5034 5032 5029 5026 5022 5019 5015 5011 5007 5002 4998 4994 4989 4984 4979 4974 4969 4965 4960 4956 4951 4947 4942 4938 4933 4929 4925 4922 4919 4916 4912 4909 4907 4905 4903 4901 4899 4898 4897 4897 4897 4898 4898 4899
5182 5178 5173 5169 5164 5159 5154 5149 5144 5139 5133 5128 5122 5116 5111 5106 5101 5096 5092 5088 5084 5080 5077 5074 5071 5067 5064 5061 5058 5056 5053 5051 5049 5046 5044 5042 5040 5038 5036 5033 5031 5028 5025 5021 5018 5014 5010 5006 5001 4997 4992 4987 4983 4978 4972 4967 4962 4957 4952 4948 4943 4939 4934 4930 4925 4920 4915 4911 4908 4905 4901 4898 4895 4892 4890 4889 4887 4886 4885 4884 4884 4884 4884 4885 4886
5174 5170 5165 5160 5155 5150 5145 5140 5134 5129 5123 5117 5111 5105 5099 5094 5089 5084 5080 5076 5072 5069 5066 5063 5060 5058 5055 5052 5050 5047 5045 5043 5041 5039 5037 5036 5034 5032 5030 5027 5024 5021 5018 5014 5010 5006 5002 4997 4992 4987 4982 4976 4971 4965 4960 4955 4950 4945 4941 4936 4931 4926 4921 4916 4911 4906 4902 4898 4894 4890 4887 4884 4881 4879 4877 4876 4875 4874 4874 4873 4873 4873 4874 4874 4875
5167 5162 5157 5152 5147 5141 5136 5130 5124 5118 5112 5106 5099 5093 5087 5081 5077 5072 5068 5064 5061 5058 5056 5053 5051 5049 5047 5045 5043 5041 5039 5037 5036 5034 5032 5031 5029 5027 5024 5021 5018 5015 5011 5007 5003 4998 4993 4988 4983 4977 4971 4965 4960 4954 4949 4944 4939 4934 4929 4924 4919 4914 4908 4903 4898 4893 4889 4885 4881 4878 4875 4872 4870 4868 4867 4865 4864 4864 4863 4863 4863 4863 4864 4866 4866
5159 5154 5149 5144 5138 5132 5126 5120 5113 5107 5101 5094 5088 5082 5076 5070 5066 5061 5058 5055 5052 5049 5047 5045 5044 5042 5040 5039 5037 5036 5034 5033 5032 5030 5028 5026 5024 5022 5019 5015 5012 5008 5004 5000 4995 4990 4985 4979 4973 4967 4961 4956 4950 4944 4939 4934 4928 4923 4918 4912 4907 4902 4896 4891 4886 4882 4877 4874 4871 4868 4865 4862 4860 4858 4857 4856 4855 4855 4854 4854 4854 4855 4856 4858 4859
5152 5146 5141 5135 5129 5123 5116 5110 5104 5097 5091 5084 5078 5072 5066 5061 5057 5053 5050 5047 5045 5043 5041 5040 5038 5037 5036 5035 5034 5032 5031 5030 5028 5026 5024 5022 5019 5016 5013 5009 5006 5002 4997 4993 4987 4982 4976 4970 4964 4958 4952 4947 4941 4936 4930 4925 4919 4913 4907 4902 4896 4890 4885 4881 4876 4872 4868 4865 4862 4859 4856 4853 4851 4849 4848 4848 4848 4848 4847 4847 4848 4849 4850 4852 4853
5144 5138 5132 5126 5120 5114 5108 5102 5096 5089 5083 5076 5070 5064 5059 5055 5051 5048 5045 5043 5041 5039 5037 5036 5035 5034 5033 5032 5031 5030 5028 5027 5025 5023 5020 5018 5015 5011 5008 5004 5000 4995 4991 4985 4980 4974 4968 4961 4956 4950 4945 4939 4934 4928 4923 4917 4911 4904 4898 4892 4886 4881 4877 4872 4868 4864 4861 4857 4854 4851 4849 4846 4844 4843 4842 4841 4842 4842 4842 4842 4843 4845 4846 4847 4849
5136 5130 5124 5118 5112 5107 5101 5095 5089 5083 5076 5070 5065 5060 5055 5051 5048 5045 5043 5040 5039 5037 5036 5034 5033 5032 5031 5030 5029 5028 5026 5024 5022 5019 5016 5013 5010 5006 5003 4998 4994 4989 4984 4978 4972 4966 4960 4954 4948 4943 4938 4932 4927 4921 4915 4909 4903 4896 4890 4884 4879 4874 4870 4866 4862 4858 4855 4851 4848 4846 4843 4841 4840 4839 4838 4838 4838 4838 4838 4839 4840 4841 4843 4845 4846
5129 5123 5117 5112 5106 5100 5095 5089 5083 5078 5072 5067 5062 5057 5053 5050 5047 5044 5042 5040 5038 5036 5035 5034 5033 5031 5030 5029 5027 5025 5023 5021 5018 5015 5012 5009 5005 5001 4997 4993 4988 4983 4977 4971 4965 4959 4953 4947 4942 4937 4931 4926 4921 4915 4909 4902 4896 4889 4883 4878 4873 4869 4865 4861 4857 4854 4850 4847 4844 4842 4840 4838 4837 4836 4835 4835 4835 4836 4837 4838 4839 4840 4842 4843 4845
5122 5116 5111 5106 5100 5095 5090 5085 5079 5074 5069 5065 5060 5056 5052 5049 5046 5044 5041 5039 5038 5036 5035 5034 5032 5031 5029 5027 5025 5023 5020 5017 5014 5011 5008 5005 5001 4997 4992 4988 4983 4977 4971 4964 4958 4952 4947 4942 4937 4931 4926 4921 4915 4910 4903 4897 4890 4884 4878 4873 4869 4865 4861 4857 4854 4850 4847 4845 4842 4840 4838 4837 4836 4835 4835 4835 4835 4836 4836 4837 4839 4840 4842 4843 4845